When you browse on this site, cookies collect data to enhance your experience and personalize the content and advertising you see.
Visit our Privacy Policy to learn more. By continuing to use the site, you agree to this use of cookies and data.
  • In Italy
  • List of Countries
  • For 7 days
  • Water Temperature
  • Satellite Maps
  • Weather Map
  • Weather Widgets
  • user-avatar
    Login

    Hourly Weather Hrodna

    Today, 20 April, Saturday

    Time Temperature Precipitation Wind Pressure Humidity
    00:00 +10°C° 0 mm 1 mps 762 mmHg 61%
    01:00 +8°C° 0 mm 2 mps 762 mmHg 64%
    02:00 +8°C° 0 mm 2 mps 761 mmHg 66%
    03:00 +7°C° 0 mm 2 mps 761 mmHg 66%
    04:00 +7°C° 0 mm 2 mps 761 mmHg 66%
    05:00 +6°C° 0 mm 2 mps 761 mmHg 65%
    06:00 +7°C° 0 mm 2 mps 761 mmHg 62%
    07:00 +8°C° 0 mm 3 mps 760 mmHg 59%
    08:00 +9°C° 0 mm 3 mps 760 mmHg 56%
    09:00 +11°C° 0 mm 4 mps 760 mmHg 51%
    10:00 +13°C° 0 mm 4 mps 760 mmHg 45%
    11:00 +14°C° 0 mm 4 mps 760 mmHg 39%
    12:00 +15°C° 0 mm 4 mps 759 mmHg 38%
    13:00 +15°C° 0 mm 4 mps 759 mmHg 36%
    14:00 +17°C° 0 mm 4 mps 759 mmHg 35%
    15:00 +17°C° 0 mm 4 mps 758 mmHg 37%
    16:00 +17°C° 0 mm 4 mps 758 mmHg 38%
    17:00 +15°C° 0 mm 4 mps 758 mmHg 40%
    18:00 +14°C° 0 mm 4 mps 758 mmHg 46%
    19:00 +13°C° 0 mm 3 mps 758 mmHg 51%
    20:00 +12°C° 0 mm 2 mps 758 mmHg 57%
    21:00 +10°C° 0 mm 2 mps 758 mmHg 62%
    22:00 +9°C° 0 mm 2 mps 758 mmHg 67%
    23:00 +8°C° 0 mm 2 mps 758 mmHg 71%

    Tomorrow, 21 April, Sunday

    Time Temperature Precipitation Wind Pressure Humidity
    00:00 +8°C° 0 mm 2 mps 758 mmHg 75%
    01:00 +7°C° 0 mm 2 mps 757 mmHg 78%
    02:00 +6°C° 0 mm 2 mps 757 mmHg 82%
    03:00 +5°C° 0 mm 2 mps 757 mmHg 83%
    04:00 +5°C° 0 mm 2 mps 757 mmHg 85%
    05:00 +4°C° 0 mm 2 mps 757 mmHg 87%
    06:00 +4°C° 0 mm 3 mps 757 mmHg 82%
    07:00 +7°C° 0 mm 3 mps 757 mmHg 77%
    08:00 +8°C° 0 mm 3 mps 757 mmHg 72%
    09:00 +10°C° 0.2 mm 3 mps 756 mmHg 65%
    10:00 +11°C° 0.2 mm 4 mps 756 mmHg 57%
    11:00 +13°C° 0.2 mm 4 mps 756 mmHg 50%
    12:00 +13°C° 0.4 mm 3 mps 756 mmHg 48%
    13:00 +13°C° 0.4 mm 3 mps 756 mmHg 47%
    14:00 +14°C° 0.4 mm 2 mps 755 mmHg 46%
    15:00 +14°C° 0.3 mm 2 mps 755 mmHg 46%
    16:00 +14°C° 0.3 mm 2 mps 755 mmHg 47%
    17:00 +14°C° 0.3 mm 2 mps 755 mmHg 47%
    18:00 +12°C° 0 mm 2 mps 755 mmHg 53%
    19:00 +10°C° 0 mm 2 mps 755 mmHg 60%
    20:00 +9°C° 0 mm 2 mps 755 mmHg 66%
    21:00 +8°C° 0 mm 2 mps 755 mmHg 71%
    22:00 +7°C° 0 mm 2 mps 755 mmHg 77%
    23:00 +7°C° 0 mm 3 mps 755 mmHg 82%

    Day after tomorrow, 22 April, Monday

    Time Temperature Precipitation Wind Pressure Humidity
    00:00 +7°C° 0 mm 3 mps 755 mmHg 85%
    01:00 +7°C° 0 mm 3 mps 755 mmHg 89%
    02:00 +6°C° 0 mm 4 mps 756 mmHg 92%
    03:00 +5°C° 0 mm 4 mps 756 mmHg 93%
    04:00 +5°C° 0 mm 4 mps 756 mmHg 93%
    05:00 +5°C° 0 mm 4 mps 756 mmHg 94%
    06:00 +6°C° 0 mm 4 mps 756 mmHg 89%
    07:00 +7°C° 0 mm 5 mps 757 mmHg 85%
    08:00 +8°C° 0 mm 5 mps 757 mmHg 80%
    09:00 +10°C° 0 mm 5 mps 758 mmHg 73%
    10:00 +13°C° 0 mm 6 mps 758 mmHg 67%
    11:00 +14°C° 0 mm 6 mps 758 mmHg 60%
    12:00 +15°C° 0 mm 6 mps 758 mmHg 57%
    13:00 +16°C° 0 mm 6 mps 758 mmHg 53%
    14:00 +17°C° 0 mm 6 mps 758 mmHg 49%
    15:00 +17°C° 0 mm 6 mps 758 mmHg 49%
    16:00 +17°C° 0 mm 6 mps 758 mmHg 48%
    17:00 +16°C° 0 mm 5 mps 758 mmHg 48%
    18:00 +15°C° 0 mm 5 mps 758 mmHg 54%
    19:00 +13°C° 0 mm 4 mps 758 mmHg 60%
    20:00 +11°C° 0 mm 3 mps 759 mmHg 67%
    21:00 +10°C° 0 mm 3 mps 759 mmHg 67%
    22:00 +10°C° 0 mm 4 mps 759 mmHg 66%
    23:00 +8°C° 0 mm 4 mps 760 mmHg 66%

    23 April, Tuesday

    Time Temperature Precipitation Wind Pressure Humidity
    00:00 +7°C° 0 mm 4 mps 760 mmHg 67%
    01:00 +8°C° 0 mm 3 mps 760 mmHg 67%
    02:00 +7°C° 0 mm 3 mps 760 mmHg 67%
    03:00 +7°C° 0 mm 3 mps 760 mmHg 67%
    04:00 +6°C° 0 mm 4 mps 760 mmHg 68%
    05:00 +5°C° 0 mm 4 mps 760 mmHg 68%
    06:00 +7°C° 0 mm 4 mps 760 mmHg 64%
    07:00 +8°C° 0 mm 5 mps 760 mmHg 60%
    08:00 +10°C° 0 mm 6 mps 760 mmHg 56%
    09:00 +11°C° 0 mm 7 mps 760 mmHg 52%
    10:00 +12°C° 0 mm 7 mps 760 mmHg 49%
    11:00 +15°C° 0 mm 8 mps 760 mmHg 45%
    12:00 +15°C° 0 mm 8 mps 760 mmHg 43%
    13:00 +16°C° 0 mm 8 mps 760 mmHg 42%
    14:00 +16°C° 0 mm 8 mps 759 mmHg 40%
    15:00 +16°C° 0 mm 8 mps 759 mmHg 41%
    16:00 +16°C° 0 mm 8 mps 759 mmHg 42%
    17:00 +16°C° 0 mm 7 mps 758 mmHg 43%
    18:00 +14°C° 0 mm 7 mps 758 mmHg 47%
    19:00 +13°C° 0 mm 6 mps 758 mmHg 51%
    20:00 +10°C° 0 mm 5 mps 758 mmHg 55%
    21:00 +10°C° 0 mm 5 mps 758 mmHg 55%
    22:00 +9°C° 0 mm 6 mps 758 mmHg 55%
    23:00 +9°C° 0 mm 6 mps 759 mmHg 55%

    24 April, Wednesday

    Time Temperature Precipitation Wind Pressure Humidity
    00:00 +9°C° 0 mm 6 mps 758 mmHg 57%
    01:00 +8°C° 0 mm 6 mps 758 mmHg 58%
    02:00 +8°C° 0 mm 6 mps 758 mmHg 60%
    03:00 +8°C° 0 mm 6 mps 758 mmHg 61%
    04:00 +7°C° 0 mm 6 mps 758 mmHg 62%
    05:00 +7°C° 0 mm 6 mps 758 mmHg 63%
    06:00 +8°C° 0 mm 7 mps 758 mmHg 60%
    07:00 +9°C° 0 mm 8 mps 758 mmHg 57%
    08:00 +10°C° 0 mm 9 mps 758 mmHg 54%
    09:00 +11°C° 0 mm 10 mps 758 mmHg 51%
    10:00 +13°C° 0 mm 10 mps 758 mmHg 49%
    11:00 +14°C° 0 mm 10 mps 758 mmHg 46%
    12:00 +16°C° 0 mm 10 mps 757 mmHg 45%
    13:00 +16°C° 0 mm 10 mps 757 mmHg 43%
    14:00 +17°C° 0 mm 10 mps 757 mmHg 42%
    15:00 +17°C° 0 mm 9 mps 757 mmHg 43%
    16:00 +17°C° 0 mm 9 mps 757 mmHg 44%
    17:00 +17°C° 0 mm 8 mps 756 mmHg 45%
    18:00 +16°C° 0 mm 7 mps 756 mmHg 48%
    19:00 +14°C° 0 mm 6 mps 756 mmHg 52%
    20:00 +13°C° 0 mm 5 mps 756 mmHg 55%
    21:00 +13°C° 0 mm 5 mps 757 mmHg 58%
    22:00 +12°C° 0 mm 5 mps 757 mmHg 62%
    23:00 +10°C° 0 mm 5 mps 757 mmHg 65%

    25 April, Thursday

    Time Temperature Precipitation Wind Pressure Humidity
    00:00 +10°C° 0 mm 5 mps 757 mmHg 67%
    01:00 +10°C° 0 mm 5 mps 757 mmHg 70%
    02:00 +9°C° 0 mm 5 mps 757 mmHg 73%
    03:00 +9°C° 0 mm 5 mps 757 mmHg 74%
    04:00 +9°C° 0 mm 6 mps 757 mmHg 76%
    05:00 +10°C° 0 mm 6 mps 757 mmHg 77%
    06:00 +10°C° 0 mm 6 mps 757 mmHg 75%
    07:00 +11°C° 0 mm 6 mps 757 mmHg 73%
    08:00 +12°C° 0 mm 7 mps 757 mmHg 71%
    09:00 +14°C° 0 mm 7 mps 757 mmHg 68%
    10:00 +15°C° 0 mm 7 mps 757 mmHg 64%
    11:00 +17°C° 0 mm 7 mps 757 mmHg 60%
    12:00 +17°C° 0 mm 7 mps 756 mmHg 58%
    13:00 +18°C° 0 mm 7 mps 756 mmHg 57%
    14:00 +20°C° 0 mm 7 mps 756 mmHg 55%
    15:00 +18°C° 0 mm 7 mps 756 mmHg 55%
    16:00 +19°C° 0 mm 6 mps 756 mmHg 55%
    17:00 +19°C° 0 mm 6 mps 755 mmHg 54%
    18:00 +16°C° 0 mm 5 mps 755 mmHg 59%
    19:00 +15°C° 0 mm 5 mps 755 mmHg 63%
    20:00 +13°C° 0 mm 4 mps 755 mmHg 67%
    21:00 +13°C° 0 mm 4 mps 755 mmHg 69%
    22:00 +12°C° 0 mm 4 mps 755 mmHg 72%
    23:00 +11°C° 0 mm 4 mps 755 mmHg 74%
    Show more